Time,TemperatureF,DewpointF,PressureIn,WindDirection,WindDirectionDegrees,WindSpeedMPH,WindSpeedGustMPH,Humidity,HourlyPrecipIn,Conditions,Clouds,dailyrainin,SoftwareType,DateUTC
2013-04-14 00:00:00,52.8,43.8,29.65,ESE,107,0.0,0.0,71,0.00,,,0.00,Custom v0.1,2013-04-14 05:00:00,
2013-04-14 00:05:00,52.8,44.1,29.65,ESE,107,0.0,0.0,72,0.00,,,0.00,Custom v0.1,2013-04-14 05:05:00,
2013-04-14 00:10:00,52.3,43.6,29.65,ESE,107,0.0,0.0,72,0.00,,,0.00,Custom v0.1,2013-04-14 05:10:00,
2013-04-14 00:15:00,52.2,43.5,29.65,ESE,106,0.0,0.0,72,0.00,,,0.00,Custom v0.1,2013-04-14 05:15:00,
2013-04-14 00:20:00,52.5,43.8,29.64,East,101,0.0,0.0,72,0.00,,,0.00,Custom v0.1,2013-04-14 05:20:00,
2013-04-14 00:25:00,52.6,43.9,29.64,ESE,114,0.0,0.0,72,0.00,,,0.00,Custom v0.1,2013-04-14 05:25:00,
2013-04-14 00:35:00,54.1,43.9,29.64,ESE,117,0.0,0.0,68,0.00,,,0.00,Custom v0.1,2013-04-14 05:35:00,
2013-04-14 00:40:00,56.0,43.7,29.64,SSE,161,0.0,0.0,63,0.00,,,0.00,Custom v0.1,2013-04-14 05:40:00,
2013-04-14 00:45:00,57.6,43.5,29.64,SSE,162,0.0,0.0,59,0.00,,,0.00,Custom v0.1,2013-04-14 05:45:00,
2013-04-14 00:50:00,58.9,43.8,29.63,SE,124,0.0,0.0,57,0.00,,,0.00,Custom v0.1,2013-04-14 05:50:00,
2013-04-14 00:55:00,59.0,43.9,29.63,South,175,4.0,4.0,57,0.00,,,0.00,Custom v0.1,2013-04-14 05:55:00,
2013-04-14 01:00:00,59.0,43.4,29.63,ESE,123,0.0,0.0,56,0.00,,,0.00,Custom v0.1,2013-04-14 06:00:00,
2013-04-14 01:05:00,59.0,43.4,29.62,South,169,0.0,0.0,56,0.00,,,0.00,Custom v0.1,2013-04-14 06:05:00,
2013-04-14 01:10:00,58.9,43.3,29.62,SE,140,3.0,3.0,56,0.00,,,0.00,Custom v0.1,2013-04-14 06:10:00,
2013-04-14 01:15:00,58.7,43.1,29.62,SE,142,5.0,5.0,56,0.00,,,0.00,Custom v0.1,2013-04-14 06:15:00,
2013-04-14 01:20:00,58.6,43.5,29.62,SSE,149,0.0,0.0,57,0.00,,,0.00,Custom v0.1,2013-04-14 06:20:00,
2013-04-14 01:25:00,58.4,42.8,29.62,South,169,0.0,0.0,56,0.00,,,0.00,Custom v0.1,2013-04-14 06:25:00,
2013-04-14 01:30:00,58.7,43.1,29.62,SE,141,5.0,5.0,56,0.00,,,0.00,Custom v0.1,2013-04-14 06:30:00,
2013-04-14 01:35:00,58.6,43.5,29.61,SSE,166,0.0,0.0,57,0.00,,,0.00,Custom v0.1,2013-04-14 06:35:00,
2013-04-14 01:40:00,58.7,43.1,29.61,South,175,0.0,0.0,56,0.00,,,0.00,Custom v0.1,2013-04-14 06:40:00,
2013-04-14 01:45:00,58.7,43.1,29.61,South,171,4.0,4.0,56,0.00,,,0.00,Custom v0.1,2013-04-14 06:45:00,
2013-04-14 01:55:00,58.4,43.3,29.60,South,171,5.0,5.0,57,0.00,,,0.00,Custom v0.1,2013-04-14 06:55:00,
2013-04-14 02:00:00,58.4,43.3,29.60,SE,144,7.0,7.0,57,0.00,,,0.00,Custom v0.1,2013-04-14 07:00:00,
2013-04-14 02:10:00,58.3,43.2,29.59,SSE,158,6.0,7.0,57,0.00,,,0.00,Custom v0.1,2013-04-14 07:10:00,
2013-04-14 02:15:00,58.3,43.2,29.59,South,178,3.0,5.0,57,0.00,,,0.00,Custom v0.1,2013-04-14 07:15:00,
2013-04-14 02:20:00,58.1,43.5,29.58,South,179,0.0,6.0,58,0.00,,,0.00,Custom v0.1,2013-04-14 07:20:00,
2013-04-14 02:25:00,58.0,43.4,29.58,SSE,164,3.0,6.0,58,0.00,,,0.00,Custom v0.1,2013-04-14 07:25:00,
2013-04-14 02:30:00,57.8,43.7,29.58,South,175,7.0,8.0,59,0.00,,,0.00,Custom v0.1,2013-04-14 07:30:00,
2013-04-14 02:35:00,57.6,43.5,29.58,South,183,5.0,5.0,59,0.00,,,0.00,Custom v0.1,2013-04-14 07:35:00,
2013-04-14 02:45:00,57.3,43.6,29.58,SSE,151,7.0,7.0,60,0.00,,,0.00,Custom v0.1,2013-04-14 07:45:00,
2013-04-14 02:50:00,57.2,43.6,29.57,SE,140,6.0,6.0,60,0.00,,,0.00,Custom v0.1,2013-04-14 07:50:00,
2013-04-14 03:00:00,57.2,43.6,29.57,South,173,0.0,7.0,60,0.00,,,0.00,Custom v0.1,2013-04-14 08:00:00,
2013-04-14 03:05:00,57.2,43.6,29.57,South,178,3.0,5.0,60,0.00,,,0.00,Custom v0.1,2013-04-14 08:05:00,
2013-04-14 03:10:00,57.0,43.8,29.57,SSE,149,6.0,6.0,61,0.00,,,0.00,Custom v0.1,2013-04-14 08:10:00,
2013-04-14 03:15:00,56.7,43.9,29.57,SSE,165,3.0,3.0,62,0.00,,,0.00,Custom v0.1,2013-04-14 08:15:00,
2013-04-14 03:20:00,56.9,44.1,29.56,South,183,3.0,3.0,62,0.00,,,0.00,Custom v0.1,2013-04-14 08:20:00,
2013-04-14 03:25:00,56.9,44.1,29.56,SSW,192,1.0,8.0,62,0.00,,,0.00,Custom v0.1,2013-04-14 08:25:00,
2013-04-14 03:30:00,56.7,43.9,29.56,SSW,193,0.0,6.0,62,0.00,,,0.00,Custom v0.1,2013-04-14 08:30:00,
2013-04-14 03:35:00,56.6,44.3,29.56,South,171,0.0,0.0,63,0.00,,,0.00,Custom v0.1,2013-04-14 08:35:00,
2013-04-14 03:40:00,56.6,44.3,29.56,SSW,195,5.0,10.0,63,0.00,,,0.00,Custom v0.1,2013-04-14 08:40:00,
2013-04-14 03:45:00,56.7,44.4,29.56,South,185,0.0,0.0,63,0.00,,,0.00,Custom v0.1,2013-04-14 08:45:00,
2013-04-14 03:50:00,56.5,44.6,29.55,South,175,0.0,0.0,64,0.00,,,0.00,Custom v0.1,2013-04-14 08:50:00,
2013-04-14 03:55:00,56.5,44.6,29.55,South,169,6.0,6.0,64,0.00,,,0.00,Custom v0.1,2013-04-14 08:55:00,
2013-04-14 04:00:00,56.5,44.6,29.55,South,171,0.0,0.0,64,0.00,,,0.00,Custom v0.1,2013-04-14 09:00:00,
2013-04-14 04:05:00,56.5,44.6,29.55,South,169,0.0,0.0,64,0.00,,,0.00,Custom v0.1,2013-04-14 09:05:00,
2013-04-14 04:10:00,56.3,44.4,29.55,South,173,0.0,0.0,64,0.00,,,0.00,Custom v0.1,2013-04-14 09:10:00,
2013-04-14 04:15:00,56.3,44.4,29.55,South,180,0.0,0.0,64,0.00,,,0.00,Custom v0.1,2013-04-14 09:15:00,
2013-04-14 04:20:00,56.3,44.8,29.54,South,178,0.0,0.0,65,0.00,,,0.00,Custom v0.1,2013-04-14 09:20:00,
2013-04-14 04:25:00,56.3,44.8,29.54,SSW,200,0.0,0.0,65,0.00,,,0.00,Custom v0.1,2013-04-14 09:25:00,
2013-04-14 04:30:00,56.0,44.9,29.54,South,179,0.0,0.0,66,0.00,,,0.00,Custom v0.1,2013-04-14 09:30:00,
2013-04-14 04:35:00,56.0,44.9,29.53,South,183,0.0,0.0,66,0.00,,,0.00,Custom v0.1,2013-04-14 09:35:00,
2013-04-14 04:40:00,55.9,44.8,29.53,South,172,0.0,0.0,66,0.00,,,0.00,Custom v0.1,2013-04-14 09:40:00,
2013-04-14 04:45:00,55.9,45.2,29.53,SSW,206,3.0,3.0,67,0.00,,,0.00,Custom v0.1,2013-04-14 09:45:00,
2013-04-14 04:50:00,55.9,45.2,29.53,South,186,5.0,5.0,67,0.00,,,0.00,Custom v0.1,2013-04-14 09:50:00,
2013-04-14 04:55:00,55.7,45.0,29.53,South,185,0.0,0.0,67,0.00,,,0.00,Custom v0.1,2013-04-14 09:55:00,
2013-04-14 05:00:00,55.6,45.3,29.53,South,178,0.0,0.0,68,0.00,,,0.00,Custom v0.1,2013-04-14 10:00:00,
2013-04-14 05:05:00,55.4,45.1,29.52,SSE,154,5.0,5.0,68,0.00,,,0.00,Custom v0.1,2013-04-14 10:05:00,
2013-04-14 05:10:00,55.6,45.3,29.52,South,188,0.0,0.0,68,0.00,,,0.00,Custom v0.1,2013-04-14 10:10:00,
2013-04-14 05:15:00,55.4,45.1,29.52,South,176,0.0,0.0,68,0.00,,,0.00,Custom v0.1,2013-04-14 10:15:00,
2013-04-14 05:20:00,55.4,45.1,29.51,South,183,0.0,0.0,68,0.00,,,0.00,Custom v0.1,2013-04-14 10:20:00,
2013-04-14 05:25:00,55.6,45.3,29.51,SSE,151,0.0,0.0,68,0.00,,,0.00,Custom v0.1,2013-04-14 10:25:00,
2013-04-14 05:30:00,55.6,45.3,29.51,South,169,0.0,0.0,68,0.00,,,0.00,Custom v0.1,2013-04-14 10:30:00,
2013-04-14 05:35:00,55.6,45.3,29.51,SSE,151,0.0,0.0,68,0.00,,,0.00,Custom v0.1,2013-04-14 10:35:00,
2013-04-14 05:40:00,55.6,45.3,29.51,SSE,151,0.0,0.0,68,0.00,,,0.00,Custom v0.1,2013-04-14 10:40:00,
2013-04-14 05:45:00,55.7,45.4,29.51,SSE,155,0.0,0.0,68,0.00,,,0.00,Custom v0.1,2013-04-14 10:45:00,
2013-04-14 05:50:00,55.9,45.6,29.50,SSW,195,0.0,0.0,68,0.00,,,0.00,Custom v0.1,2013-04-14 10:50:00,
2013-04-14 05:55:00,55.9,45.6,29.50,SE,134,0.0,0.0,68,0.00,,,0.00,Custom v0.1,2013-04-14 10:55:00,
2013-04-14 06:00:00,55.9,45.6,29.50,South,178,0.0,0.0,68,0.00,,,0.00,Custom v0.1,2013-04-14 11:00:00,
2013-04-14 06:05:00,55.7,45.4,29.50,SSW,192,0.0,0.0,68,0.00,,,0.00,Custom v0.1,2013-04-14 11:05:00,
2013-04-14 06:10:00,55.6,45.3,29.50,SSE,166,0.0,0.0,68,0.00,,,0.00,Custom v0.1,2013-04-14 11:10:00,
2013-04-14 06:15:00,55.6,45.3,29.50,SSW,196,0.0,0.0,68,0.00,,,0.00,Custom v0.1,2013-04-14 11:15:00,
2013-04-14 06:20:00,55.3,45.4,29.50,South,180,0.0,0.0,69,0.00,,,0.00,Custom v0.1,2013-04-14 11:20:00,
2013-04-14 06:25:00,55.4,45.1,29.50,SE,137,0.0,0.0,68,0.00,,,0.00,Custom v0.1,2013-04-14 11:25:00,
2013-04-14 06:30:00,55.4,45.5,29.50,SSE,158,2.0,7.0,69,0.00,,,0.00,Custom v0.1,2013-04-14 11:30:00,
2013-04-14 06:35:00,55.7,45.4,29.49,SSE,147,6.0,6.0,68,0.00,,,0.00,Custom v0.1,2013-04-14 11:35:00,
2013-04-14 06:40:00,55.9,45.6,29.49,South,189,0.0,0.0,68,0.00,,,0.00,Custom v0.1,2013-04-14 11:40:00,
2013-04-14 06:45:00,55.7,45.4,29.49,SSE,161,0.0,0.0,68,0.00,,,0.00,Custom v0.1,2013-04-14 11:45:00,
2013-04-14 06:50:00,55.7,45.4,29.49,SSE,166,7.0,7.0,68,0.00,,,0.00,Custom v0.1,2013-04-14 11:50:00,
2013-04-14 06:55:00,56.0,45.7,29.49,SSE,165,7.0,7.0,68,0.00,,,0.00,Custom v0.1,2013-04-14 11:55:00,
2013-04-14 07:00:00,56.2,45.9,29.49,South,175,0.0,0.0,68,0.00,,,0.00,Custom v0.1,2013-04-14 12:00:00,
2013-04-14 07:05:00,56.2,45.9,29.50,South,189,0.0,0.0,68,0.00,,,0.00,Custom v0.1,2013-04-14 12:05:00,
2013-04-14 07:10:00,56.3,45.6,29.50,South,190,0.0,1.0,67,0.00,,,0.00,Custom v0.1,2013-04-14 12:10:00,
2013-04-14 07:15:00,56.5,45.8,29.50,SE,142,8.0,8.0,67,0.00,,,0.00,Custom v0.1,2013-04-14 12:15:00,
2013-04-14 07:20:00,56.6,45.9,29.50,South,171,0.0,0.0,67,0.00,,,0.00,Custom v0.1,2013-04-14 12:20:00,
2013-04-14 07:25:00,56.9,46.2,29.50,South,176,0.0,0.0,67,0.00,,,0.00,Custom v0.1,2013-04-14 12:25:00,
2013-04-14 07:30:00,57.2,46.5,29.50,SSE,162,2.0,6.0,67,0.00,,,0.00,Custom v0.1,2013-04-14 12:30:00,
2013-04-14 07:40:00,58.0,46.4,29.51,South,173,5.0,5.0,65,0.00,,,0.00,Custom v0.1,2013-04-14 12:40:00,
2013-04-14 07:45:00,58.3,46.3,29.51,SE,137,6.0,6.0,64,0.00,,,0.00,Custom v0.1,2013-04-14 12:45:00,
2013-04-14 07:50:00,58.4,46.4,29.51,SSW,200,2.0,10.0,64,0.00,,,0.00,Custom v0.1,2013-04-14 12:50:00,
2013-04-14 07:55:00,58.7,46.3,29.51,South,185,0.0,7.0,63,0.00,,,0.00,Custom v0.1,2013-04-14 12:55:00,
2013-04-14 08:00:00,59.0,46.6,29.51,SE,144,2.0,2.0,63,0.00,,,0.00,Custom v0.1,2013-04-14 13:00:00,
2013-04-14 08:05:00,59.5,46.6,29.51,SW,224,5.0,5.0,62,0.00,,,0.00,Custom v0.1,2013-04-14 13:05:00,
2013-04-14 08:10:00,59.9,47.0,29.51,South,180,13.0,13.0,62,0.00,,,0.00,Custom v0.1,2013-04-14 13:10:00,
2013-04-14 08:15:00,60.2,47.3,29.51,South,189,14.0,14.0,62,0.00,,,0.00,Custom v0.1,2013-04-14 13:15:00,
2013-04-14 08:20:00,60.5,47.1,29.52,South,175,13.0,13.0,61,0.00,,,0.00,Custom v0.1,2013-04-14 13:20:00,
2013-04-14 08:25:00,60.7,46.9,29.52,South,172,7.0,8.0,60,0.00,,,0.00,Custom v0.1,2013-04-14 13:25:00,
2013-04-14 08:30:00,61.0,47.1,29.52,SSW,199,16.0,16.0,60,0.00,,,0.00,Custom v0.1,2013-04-14 13:30:00,
2013-04-14 08:35:00,61.3,47.4,29.51,SW,220,14.0,14.0,60,0.00,,,0.00,Custom v0.1,2013-04-14 13:35:00,
2013-04-14 08:40:00,61.6,47.7,29.51,South,182,11.0,11.0,60,0.00,,,0.00,Custom v0.1,2013-04-14 13:40:00,
2013-04-14 08:45:00,62.0,47.6,29.51,South,171,0.0,8.0,59,0.00,,,0.00,Custom v0.1,2013-04-14 13:45:00,
2013-04-14 08:50:00,62.4,47.6,29.51,South,188,15.0,15.0,58,0.00,,,0.00,Custom v0.1,2013-04-14 13:50:00,
2013-04-14 08:55:00,62.9,48.0,29.51,South,183,12.0,12.0,58,0.00,,,0.00,Custom v0.1,2013-04-14 13:55:00,
2013-04-14 09:00:00,63.4,47.5,29.51,SSE,162,3.0,8.0,56,0.00,,,0.00,Custom v0.1,2013-04-14 14:00:00,
2013-04-14 09:05:00,63.9,48.0,29.51,SW,221,15.0,15.0,56,0.00,,,0.00,Custom v0.1,2013-04-14 14:05:00,
2013-04-14 09:10:00,64.2,47.8,29.51,SSW,199,16.0,16.0,55,0.00,,,0.00,Custom v0.1,2013-04-14 14:10:00,
2013-04-14 09:15:00,64.5,47.6,29.51,SSE,162,6.0,8.0,54,0.00,,,0.00,Custom v0.1,2013-04-14 14:15:00,
2013-04-14 09:20:00,65.0,48.0,29.50,South,179,9.0,9.0,54,0.00,,,0.00,Custom v0.1,2013-04-14 14:20:00,
2013-04-14 09:25:00,65.3,48.3,29.50,WSW,244,12.0,12.0,54,0.00,,,0.00,Custom v0.1,2013-04-14 14:25:00,
2013-04-14 09:30:00,65.8,48.3,29.50,WSW,251,6.0,8.0,53,0.00,,,0.00,Custom v0.1,2013-04-14 14:30:00,
2013-04-14 09:35:00,66.3,48.2,29.50,SSW,213,22.0,22.0,52,0.00,,,0.00,Custom v0.1,2013-04-14 14:35:00,
2013-04-14 09:40:00,67.1,48.4,29.50,SSW,195,24.0,24.0,51,0.00,,,0.00,Custom v0.1,2013-04-14 14:40:00,
2013-04-14 09:45:00,67.6,47.8,29.50,South,182,7.0,8.0,49,0.00,,,0.00,Custom v0.1,2013-04-14 14:45:00,
2013-04-14 09:50:00,67.9,47.5,29.49,South,188,24.0,24.0,48,0.00,,,0.00,Custom v0.1,2013-04-14 14:50:00,
2013-04-14 09:55:00,68.3,47.3,29.49,SSE,161,36.0,36.0,47,0.00,,,0.00,Custom v0.1,2013-04-14 14:55:00,
2013-04-14 10:00:00,68.1,47.7,29.49,South,180,16.0,16.0,48,0.00,,,0.00,Custom v0.1,2013-04-14 15:00:00,
2013-04-14 10:05:00,67.9,48.1,29.48,WNW,291,18.0,18.0,49,0.00,,,0.00,Custom v0.1,2013-04-14 15:05:00,
2013-04-14 10:10:00,68.3,47.9,29.48,WSW,237,15.0,15.0,48,0.00,,,0.00,Custom v0.1,2013-04-14 15:10:00,
2013-04-14 10:15:00,68.8,47.7,29.48,South,173,8.0,8.0,47,0.00,,,0.00,Custom v0.1,2013-04-14 15:15:00,
2013-04-14 10:20:00,68.8,47.7,29.47,SSW,202,3.0,8.0,47,0.00,,,0.00,Custom v0.1,2013-04-14 15:20:00,
2013-04-14 10:25:00,69.4,48.3,29.47,SSW,192,21.0,21.0,47,0.00,,,0.00,Custom v0.1,2013-04-14 15:25:00,
2013-04-14 10:30:00,69.6,47.9,29.47,SSW,199,17.0,17.0,46,0.00,,,0.00,Custom v0.1,2013-04-14 15:30:00,
2013-04-14 10:35:00,69.3,47.6,29.47,SSE,159,17.0,17.0,46,0.00,,,0.00,Custom v0.1,2013-04-14 15:35:00,
2013-04-14 10:40:00,69.1,48.0,29.47,SSE,164,5.0,18.0,47,0.00,,,0.00,Custom v0.1,2013-04-14 15:40:00,
2013-04-14 10:45:00,69.1,48.0,29.47,South,175,19.0,19.0,47,0.00,,,0.00,Custom v0.1,2013-04-14 15:45:00,
2013-04-14 10:55:00,69.9,47.6,29.46,South,182,20.0,20.0,45,0.00,,,0.00,Custom v0.1,2013-04-14 15:55:00,
2013-04-14 11:00:00,70.4,47.4,29.46,South,189,12.0,16.0,44,0.00,,,0.00,Custom v0.1,2013-04-14 16:00:00,
2013-04-14 11:05:00,70.9,47.8,29.46,South,178,11.0,11.0,44,0.00,,,0.00,Custom v0.1,2013-04-14 16:05:00,
2013-04-14 11:10:00,71.3,46.9,29.46,South,180,27.0,27.0,42,0.00,,,0.00,Custom v0.1,2013-04-14 16:10:00,
2013-04-14 11:15:00,71.3,46.3,29.46,South,190,16.0,16.0,41,0.00,,,0.00,Custom v0.1,2013-04-14 16:15:00,
2013-04-14 11:20:00,71.6,47.2,29.45,South,176,2.0,17.0,42,0.00,,,0.00,Custom v0.1,2013-04-14 16:20:00,
2013-04-14 11:25:00,72.0,46.9,29.45,SSW,212,18.0,26.0,41,0.00,,,0.00,Custom v0.1,2013-04-14 16:25:00,
2013-04-14 11:30:00,72.0,46.2,29.45,South,176,18.0,28.0,40,0.00,,,0.00,Custom v0.1,2013-04-14 16:30:00,
2013-04-14 11:35:00,72.1,48.3,29.44,SSW,209,12.0,12.0,43,0.00,,,0.00,Custom v0.1,2013-04-14 16:35:00,
2013-04-14 11:40:00,72.5,48.0,29.44,South,176,12.0,12.0,42,0.00,,,0.00,Custom v0.1,2013-04-14 16:40:00,
2013-04-14 11:45:00,72.7,46.2,29.44,SSW,207,29.0,37.0,39,0.00,,,0.00,Custom v0.1,2013-04-14 16:45:00,
2013-04-14 11:50:00,72.3,45.8,29.44,SW,217,13.0,18.0,39,0.00,,,0.00,Custom v0.1,2013-04-14 16:50:00,
2013-04-14 11:55:00,72.7,46.2,29.44,South,171,18.0,31.0,39,0.00,,,0.00,Custom v0.1,2013-04-14 16:55:00,
2013-04-14 12:00:00,72.8,46.3,29.44,SW,219,31.0,31.0,39,0.00,,,0.00,Custom v0.1,2013-04-14 17:00:00,
2013-04-14 12:05:00,72.5,46.0,29.44,SSW,206,14.0,14.0,39,0.00,,,0.00,Custom v0.1,2013-04-14 17:05:00,
2013-04-14 12:10:00,72.5,47.4,29.44,South,189,11.0,25.0,41,0.00,,,0.00,Custom v0.1,2013-04-14 17:10:00,
2013-04-14 12:15:00,72.7,46.2,29.44,SSE,155,17.0,20.0,39,0.00,,,0.00,Custom v0.1,2013-04-14 17:15:00,
2013-04-14 12:20:00,73.0,46.5,29.42,SSW,202,11.0,16.0,39,0.00,,,0.00,Custom v0.1,2013-04-14 17:20:00,
2013-04-14 12:25:00,73.5,47.6,29.42,South,173,6.0,7.0,40,0.00,,,0.00,Custom v0.1,2013-04-14 17:25:00,
2013-04-14 12:30:00,74.4,48.4,29.42,South,186,13.0,13.0,40,0.00,,,0.00,Custom v0.1,2013-04-14 17:30:00,
2013-04-14 12:35:00,74.6,48.6,29.44,SW,233,9.0,9.0,40,0.00,,,0.00,Custom v0.1,2013-04-14 17:35:00,
2013-04-14 12:40:00,74.6,47.2,29.44,SSW,196,11.0,11.0,38,0.00,,,0.00,Custom v0.1,2013-04-14 17:40:00,
2013-04-14 12:45:00,74.2,47.5,29.44,South,171,18.0,18.0,39,0.00,,,0.00,Custom v0.1,2013-04-14 17:45:00,
2013-04-14 12:50:00,74.4,47.7,29.43,South,186,19.0,19.0,39,0.00,,,0.00,Custom v0.1,2013-04-14 17:50:00,
2013-04-14 12:55:00,74.6,47.9,29.43,South,178,1.0,7.0,39,0.00,,,0.00,Custom v0.1,2013-04-14 17:55:00,
2013-04-14 13:00:00,74.6,47.2,29.43,SSE,162,12.0,12.0,38,0.00,,,0.00,Custom v0.1,2013-04-14 18:00:00,
2013-04-14 13:05:00,74.7,48.0,29.42,SSE,155,16.0,16.0,39,0.00,,,0.00,Custom v0.1,2013-04-14 18:05:00,
2013-04-14 13:10:00,74.9,47.5,29.42,SW,217,17.0,17.0,38,0.00,,,0.00,Custom v0.1,2013-04-14 18:10:00,
2013-04-14 13:15:00,74.4,47.0,29.42,SW,217,2.0,7.0,38,0.00,,,0.00,Custom v0.1,2013-04-14 18:15:00,
2013-04-14 13:20:00,73.7,47.1,29.42,South,173,0.0,7.0,39,0.00,,,0.00,Custom v0.1,2013-04-14 18:20:00,
2013-04-14 13:25:00,73.5,46.9,29.42,SSW,195,12.0,12.0,39,0.00,,,0.00,Custom v0.1,2013-04-14 18:25:00,
2013-04-14 13:30:00,73.7,47.1,29.42,SSW,213,1.0,7.0,39,0.00,,,0.00,Custom v0.1,2013-04-14 18:30:00,
2013-04-14 13:35:00,74.0,48.7,29.41,South,182,1.0,7.0,41,0.00,,,0.00,Custom v0.1,2013-04-14 18:35:00,
2013-04-14 13:40:00,74.7,48.0,29.41,SSE,166,3.0,7.0,39,0.00,,,0.00,Custom v0.1,2013-04-14 18:40:00,
2013-04-14 13:45:00,74.9,47.5,29.41,SW,223,16.0,16.0,38,0.00,,,0.00,Custom v0.1,2013-04-14 18:45:00,
2013-04-14 13:50:00,74.6,46.5,29.41,South,173,17.0,17.0,37,0.00,,,0.00,Custom v0.1,2013-04-14 18:50:00,
2013-04-14 13:55:00,74.4,45.5,29.41,South,172,8.0,8.0,36,0.00,,,0.00,Custom v0.1,2013-04-14 18:55:00,
2013-04-14 14:00:00,74.7,45.1,29.41,SW,217,24.0,24.0,35,0.00,,,0.00,Custom v0.1,2013-04-14 19:00:00,
2013-04-14 14:05:00,75.1,44.6,29.40,SSE,149,10.0,10.0,34,0.00,,,0.00,Custom v0.1,2013-04-14 19:05:00,
2013-04-14 14:10:00,75.1,45.4,29.40,SSE,159,3.0,7.0,35,0.00,,,0.00,Custom v0.1,2013-04-14 19:10:00,
2013-04-14 14:15:00,75.3,44.0,29.40,SSW,204,7.0,7.0,33,0.00,,,0.00,Custom v0.1,2013-04-14 19:15:00,
2013-04-14 14:20:00,75.3,45.6,29.39,SSW,193,2.0,7.0,35,0.00,,,0.00,Custom v0.1,2013-04-14 19:20:00,
2013-04-14 14:25:00,75.4,43.3,29.39,SSW,197,12.0,12.0,32,0.00,,,0.00,Custom v0.1,2013-04-14 19:25:00,
2013-04-14 14:30:00,76.1,43.1,29.39,South,180,19.0,19.0,31,0.00,,,0.00,Custom v0.1,2013-04-14 19:30:00,
2013-04-14 14:35:00,76.1,44.7,29.39,South,179,7.0,7.0,33,0.00,,,0.00,Custom v0.1,2013-04-14 19:35:00,
2013-04-14 14:40:00,76.8,44.5,29.39,South,186,25.0,25.0,32,0.00,,,0.00,Custom v0.1,2013-04-14 19:40:00,
2013-04-14 14:45:00,77.0,43.9,29.39,SW,226,12.0,14.0,31,0.00,,,0.00,Custom v0.1,2013-04-14 19:45:00,
2013-04-14 14:50:00,77.4,44.2,29.38,South,180,4.0,14.0,31,0.00,,,0.00,Custom v0.1,2013-04-14 19:50:00,
2013-04-14 14:55:00,77.7,43.6,29.38,SSW,204,16.0,16.0,30,0.00,,,0.00,Custom v0.1,2013-04-14 19:55:00,
2013-04-14 15:00:00,77.7,43.6,29.38,SW,219,10.0,10.0,30,0.00,,,0.00,Custom v0.1,2013-04-14 20:00:00,
2013-04-14 15:05:00,77.9,42.9,29.38,SSW,210,12.0,12.0,29,0.00,,,0.00,Custom v0.1,2013-04-14 20:05:00,
2013-04-14 15:10:00,77.7,40.9,29.38,SW,223,18.0,18.0,27,0.00,,,0.00,Custom v0.1,2013-04-14 20:10:00,
2013-04-14 15:15:00,77.6,41.8,29.38,SSE,165,20.0,20.0,28,0.00,,,0.00,Custom v0.1,2013-04-14 20:15:00,
2013-04-14 15:20:00,77.9,42.9,29.37,South,189,25.0,25.0,29,0.00,,,0.00,Custom v0.1,2013-04-14 20:20:00,
2013-04-14 15:25:00,77.9,42.9,29.37,SSW,200,10.0,16.0,29,0.00,,,0.00,Custom v0.1,2013-04-14 20:25:00,
2013-04-14 15:30:00,77.9,42.9,29.37,SSW,197,18.0,18.0,29,0.00,,,0.00,Custom v0.1,2013-04-14 20:30:00,
2013-04-14 15:40:00,77.6,41.8,29.36,SSE,165,22.0,22.0,28,0.00,,,0.00,Custom v0.1,2013-04-14 20:40:00,
2013-04-14 15:45:00,77.7,42.8,29.36,SSW,213,10.0,10.0,29,0.00,,,0.00,Custom v0.1,2013-04-14 20:45:00,
2013-04-14 15:50:00,77.7,40.9,29.36,South,190,7.0,18.0,27,0.00,,,0.00,Custom v0.1,2013-04-14 20:50:00,
2013-04-14 15:55:00,78.1,42.2,29.36,SSW,209,27.0,27.0,28,0.00,,,0.00,Custom v0.1,2013-04-14 20:55:00,
2013-04-14 16:00:00,77.7,42.8,29.36,WSW,240,1.0,14.0,29,0.00,,,0.00,Custom v0.1,2013-04-14 21:00:00,
2013-04-14 16:05:00,77.7,42.8,29.36,SSW,200,8.0,12.0,29,0.00,,,0.00,Custom v0.1,2013-04-14 21:05:00,
2013-04-14 16:10:00,77.6,44.4,29.36,SW,227,6.0,6.0,31,0.00,,,0.00,Custom v0.1,2013-04-14 21:10:00,
2013-04-14 16:15:00,78.1,44.0,29.36,SW,216,17.0,17.0,30,0.00,,,0.00,Custom v0.1,2013-04-14 21:15:00,
2013-04-14 16:20:00,77.7,41.9,29.36,SSW,193,10.0,13.0,28,0.00,,,0.00,Custom v0.1,2013-04-14 21:20:00,
2013-04-14 16:25:00,77.4,42.5,29.36,SW,234,12.0,14.0,29,0.00,,,0.00,Custom v0.1,2013-04-14 21:25:00,
2013-04-14 16:30:00,77.4,42.5,29.36,South,171,5.0,5.0,29,0.00,,,0.00,Custom v0.1,2013-04-14 21:30:00,
2013-04-14 16:35:00,77.6,42.7,29.36,SW,223,4.0,4.0,29,0.00,,,0.00,Custom v0.1,2013-04-14 21:35:00,
2013-04-14 16:40:00,77.6,42.7,29.36,WSW,243,2.0,5.0,29,0.00,,,0.00,Custom v0.1,2013-04-14 21:40:00,
2013-04-14 16:45:00,77.7,43.6,29.36,SSW,200,1.0,2.0,30,0.00,,,0.00,Custom v0.1,2013-04-14 21:45:00,
2013-04-14 16:50:00,77.6,44.4,29.36,SSE,159,0.0,0.0,31,0.00,,,0.00,Custom v0.1,2013-04-14 21:50:00,
2013-04-14 16:55:00,77.4,44.2,29.36,South,182,14.0,21.0,31,0.00,,,0.00,Custom v0.1,2013-04-14 21:55:00,
2013-04-14 17:00:00,77.0,43.9,29.36,South,190,5.0,10.0,31,0.00,,,0.00,Custom v0.1,2013-04-14 22:00:00,
2013-04-14 17:05:00,76.7,44.5,29.36,SW,234,0.0,0.0,32,0.00,,,0.00,Custom v0.1,2013-04-14 22:05:00,
2013-04-14 17:10:00,76.5,44.3,29.36,SW,214,12.0,12.0,32,0.00,,,0.00,Custom v0.1,2013-04-14 22:10:00,
2013-04-14 17:15:00,76.5,43.4,29.36,South,180,3.0,10.0,31,0.00,,,0.00,Custom v0.1,2013-04-14 22:15:00,
2013-04-14 17:20:00,76.3,44.1,29.36,SSW,213,0.0,7.0,32,0.00,,,0.00,Custom v0.1,2013-04-14 22:20:00,
2013-04-14 17:25:00,76.1,44.7,29.36,SSW,203,0.0,0.0,33,0.00,,,0.00,Custom v0.1,2013-04-14 22:25:00,
2013-04-14 17:30:00,76.0,44.7,29.36,WSW,240,2.0,2.0,33,0.00,,,0.00,Custom v0.1,2013-04-14 22:30:00,
2013-04-14 17:35:00,76.0,45.4,29.36,SSW,203,0.0,1.0,34,0.00,,,0.00,Custom v0.1,2013-04-14 22:35:00,
2013-04-14 17:40:00,75.8,46.0,29.36,SSW,202,6.0,6.0,35,0.00,,,0.00,Custom v0.1,2013-04-14 22:40:00,
2013-04-14 17:45:00,75.4,45.7,29.36,SW,220,2.0,11.0,35,0.00,,,0.00,Custom v0.1,2013-04-14 22:45:00,
2013-04-14 17:50:00,75.4,46.4,29.37,SW,233,0.0,0.0,36,0.00,,,0.00,Custom v0.1,2013-04-14 22:50:00,
2013-04-14 17:55:00,75.1,46.9,29.37,WSW,247,0.0,7.0,37,0.00,,,0.00,Custom v0.1,2013-04-14 22:55:00,
2013-04-14 18:00:00,74.7,48.0,29.37,SW,236,1.0,1.0,39,0.00,,,0.00,Custom v0.1,2013-04-14 23:00:00,
2013-04-14 18:05:00,74.2,47.5,29.38,WSW,258,7.0,7.0,39,0.00,,,0.00,Custom v0.1,2013-04-14 23:05:00,
2013-04-14 18:10:00,73.9,48.6,29.38,WSW,250,10.0,10.0,41,0.00,,,0.00,Custom v0.1,2013-04-14 23:10:00,
2013-04-14 18:15:00,73.5,48.3,29.38,WSW,241,10.0,11.0,41,0.00,,,0.00,Custom v0.1,2013-04-14 23:15:00,
2013-04-14 18:20:00,73.3,48.7,29.38,SW,227,0.0,5.0,42,0.00,,,0.00,Custom v0.1,2013-04-14 23:20:00,
2013-04-14 18:25:00,73.2,48.7,29.38,WSW,241,0.0,0.0,42,0.00,,,0.00,Custom v0.1,2013-04-14 23:25:00,
2013-04-14 18:30:00,73.2,48.7,29.38,WSW,252,1.0,1.0,42,0.00,,,0.00,Custom v0.1,2013-04-14 23:30:00,
2013-04-14 18:35:00,73.0,48.5,29.38,WSW,257,2.0,3.0,42,0.00,,,0.00,Custom v0.1,2013-04-14 23:35:00,
2013-04-14 18:40:00,73.0,48.5,29.38,SW,228,1.0,6.0,42,0.00,,,0.00,Custom v0.1,2013-04-14 23:40:00,
2013-04-14 18:45:00,72.8,48.3,29.38,SSW,212,0.0,0.0,42,0.00,,,0.00,Custom v0.1,2013-04-14 23:45:00,
2013-04-14 18:50:00,72.8,48.3,29.38,SW,234,1.0,1.0,42,0.00,,,0.00,Custom v0.1,2013-04-14 23:50:00,
2013-04-14 18:55:00,72.7,48.9,29.38,SW,216,0.0,0.0,43,0.00,,,0.00,Custom v0.1,2013-04-14 23:55:00,
2013-04-14 19:00:00,72.7,48.9,29.38,SW,214,0.0,0.0,43,0.00,,,0.00,Custom v0.1,2013-04-15 00:00:00,
2013-04-14 19:05:00,72.3,49.7,29.38,South,189,0.0,0.0,45,0.00,,,0.00,Custom v0.1,2013-04-15 00:05:00,
2013-04-14 19:10:00,71.8,49.9,29.38,SSE,164,0.0,0.0,46,0.00,,,0.00,Custom v0.1,2013-04-15 00:10:00,
2013-04-14 19:15:00,71.5,50.2,29.38,SSW,204,0.0,0.0,47,0.00,,,0.00,Custom v0.1,2013-04-15 00:15:00,
2013-04-14 19:20:00,71.3,49.4,29.38,SW,236,0.0,0.0,46,0.00,,,0.00,Custom v0.1,2013-04-15 00:20:00,
2013-04-14 19:25:00,71.3,50.0,29.38,WSW,237,0.0,0.0,47,0.00,,,0.00,Custom v0.1,2013-04-15 00:25:00,
2013-04-14 19:30:00,71.1,49.9,29.38,SW,233,0.0,0.0,47,0.00,,,0.00,Custom v0.1,2013-04-15 00:30:00,
2013-04-14 19:35:00,70.9,49.7,29.39,SW,231,0.0,0.0,47,0.00,,,0.00,Custom v0.1,2013-04-15 00:35:00,
2013-04-14 19:45:00,70.8,50.2,29.39,SW,230,0.0,0.0,48,0.00,,,0.00,Custom v0.1,2013-04-15 00:45:00,
2013-04-14 19:50:00,70.6,50.6,29.39,SW,230,0.0,0.0,49,0.00,,,0.00,Custom v0.1,2013-04-15 00:50:00,
2013-04-14 19:55:00,70.3,50.8,29.39,WSW,247,0.0,0.0,50,0.00,,,0.00,Custom v0.1,2013-04-15 00:55:00,
2013-04-14 20:00:00,69.6,52.8,29.39,West,262,0.0,0.0,55,0.00,,,0.00,Custom v0.1,2013-04-15 01:00:00,
2013-04-14 20:10:00,64.8,56.8,29.42,NW,312,0.0,0.0,75,0.08,,,0.08,Custom v0.1,2013-04-15 01:10:00,
2013-04-14 20:15:00,63.9,56.3,29.42,NW,313,0.0,0.0,76,0.08,,,0.08,Custom v0.1,2013-04-15 01:15:00,
2013-04-14 20:25:00,63.4,56.2,29.41,West,279,5.0,11.0,77,0.09,,,0.09,Custom v0.1,2013-04-15 01:25:00,
2013-04-14 20:30:00,63.4,56.8,29.41,SSW,209,11.0,11.0,79,0.11,,,0.11,Custom v0.1,2013-04-15 01:30:00,
2013-04-14 20:40:00,62.0,58.1,29.49,West,264,0.0,0.0,87,0.21,,,0.21,Custom v0.1,2013-04-15 01:40:00,
2013-04-14 20:45:00,61.5,58.2,29.49,SW,234,0.0,0.0,89,0.22,,,0.22,Custom v0.1,2013-04-15 01:45:00,
2013-04-14 20:55:00,61.0,58.3,29.48,WSW,257,0.0,0.0,91,0.22,,,0.22,Custom v0.1,2013-04-15 01:55:00,
2013-04-14 21:00:00,60.9,58.2,29.48,West,261,0.0,0.0,91,0.22,,,0.22,Custom v0.1,2013-04-15 02:00:00,
2013-04-14 21:10:00,60.7,58.0,29.50,WNW,285,0.0,0.0,91,0.14,,,0.22,Custom v0.1,2013-04-15 02:10:00,
2013-04-14 21:15:00,60.7,58.0,29.50,WNW,295,0.0,0.0,91,0.14,,,0.22,Custom v0.1,2013-04-15 02:15:00,
2013-04-14 21:25:00,60.5,57.2,29.51,NNW,327,0.0,0.0,89,0.13,,,0.22,Custom v0.1,2013-04-15 02:25:00,
2013-04-14 21:30:00,60.4,57.1,29.51,NW,309,2.0,2.0,89,0.11,,,0.22,Custom v0.1,2013-04-15 02:30:00,
2013-04-14 21:40:00,60.2,56.6,29.52,WNW,289,0.0,0.0,88,0.01,,,0.22,Custom v0.1,2013-04-15 02:40:00,
2013-04-14 21:45:00,59.9,56.3,29.52,NW,309,0.0,0.0,88,0.00,,,0.22,Custom v0.1,2013-04-15 02:45:00,
2013-04-14 21:50:00,59.8,56.2,29.53,WNW,300,0.0,0.0,88,0.00,,,0.22,Custom v0.1,2013-04-15 02:50:00,
2013-04-14 21:55:00,59.6,56.3,29.53,NW,322,0.0,0.0,89,0.00,,,0.22,Custom v0.1,2013-04-15 02:55:00,
2013-04-14 22:00:00,59.5,56.2,29.53,NW,322,0.0,0.0,89,0.00,,,0.22,Custom v0.1,2013-04-15 03:00:00,
2013-04-14 22:05:00,59.5,56.2,29.54,NW,322,0.0,0.0,89,0.00,,,0.22,Custom v0.1,2013-04-15 03:05:00,
2013-04-14 22:10:00,59.3,56.0,29.54,NW,322,0.0,0.0,89,0.00,,,0.22,Custom v0.1,2013-04-15 03:10:00,
2013-04-14 22:15:00,59.3,56.0,29.54,NW,322,0.0,0.0,89,0.00,,,0.22,Custom v0.1,2013-04-15 03:15:00,
2013-04-14 22:20:00,59.2,55.9,29.54,NW,322,0.0,0.0,89,0.00,,,0.22,Custom v0.1,2013-04-15 03:20:00,
2013-04-14 22:25:00,59.0,55.7,29.54,NW,322,0.0,0.0,89,0.00,,,0.22,Custom v0.1,2013-04-15 03:25:00,
2013-04-14 22:30:00,59.0,55.7,29.54,NW,322,0.0,0.0,89,0.00,,,0.22,Custom v0.1,2013-04-15 03:30:00,
2013-04-14 22:35:00,58.9,55.6,29.55,NW,322,0.0,0.0,89,0.00,,,0.22,Custom v0.1,2013-04-15 03:35:00,
2013-04-14 22:40:00,58.7,55.1,29.55,NW,322,0.0,0.0,88,0.00,,,0.22,Custom v0.1,2013-04-15 03:40:00,
2013-04-14 22:45:00,58.7,55.4,29.55,NW,322,0.0,0.0,89,0.00,,,0.22,Custom v0.1,2013-04-15 03:45:00,
2013-04-14 22:55:00,58.6,55.3,29.55,NW,322,0.0,0.0,89,0.00,,,0.22,Custom v0.1,2013-04-15 03:55:00,
2013-04-14 23:00:00,58.4,55.1,29.55,NW,322,0.0,0.0,89,0.00,,,0.22,Custom v0.1,2013-04-15 04:00:00,
2013-04-14 23:05:00,58.3,55.3,29.57,NW,322,0.0,0.0,90,0.00,,,0.22,Custom v0.1,2013-04-15 04:05:00,
2013-04-14 23:10:00,58.3,55.3,29.57,NW,322,0.0,0.0,90,0.00,,,0.22,Custom v0.1,2013-04-15 04:10:00,
2013-04-14 23:15:00,58.3,55.6,29.57,NW,322,0.0,0.0,91,0.00,,,0.22,Custom v0.1,2013-04-15 04:15:00,
2013-04-14 23:20:00,58.1,55.5,29.58,NW,322,0.0,0.0,91,0.00,,,0.22,Custom v0.1,2013-04-15 04:20:00,
2013-04-14 23:25:00,58.1,55.5,29.58,NW,322,0.0,0.0,91,0.00,,,0.22,Custom v0.1,2013-04-15 04:25:00,
2013-04-14 23:30:00,58.0,55.4,29.58,NW,322,0.0,0.0,91,0.00,,,0.22,Custom v0.1,2013-04-15 04:30:00,
2013-04-14 23:35:00,58.0,55.7,29.57,NW,322,0.0,0.0,92,0.00,,,0.22,Custom v0.1,2013-04-15 04:35:00,
2013-04-14 23:40:00,57.8,55.5,29.57,NW,322,0.0,0.0,92,0.00,,,0.22,Custom v0.1,2013-04-15 04:40:00,
2013-04-14 23:45:00,57.6,55.3,29.57,NW,322,0.0,0.0,92,0.00,,,0.22,Custom v0.1,2013-04-15 04:45:00,
2013-04-14 23:55:00,57.5,55.5,29.58,NW,322,0.0,0.0,93,0.00,,,0.22,Custom v0.1,2013-04-15 04:55:00,